Lid_Strength_Index
11 13 15 13 13 14 14 16 16 15 13 13 14 14 12 12 12 12 12 12 12 11 9 10 9 9 6 4 3 2 2 2 1 1 1 1 2 3 2 2 3 3 2 3
13 15 12 12 13 14 15 16 17 14 13 13 14 14 13 13 12 11 11 11 11 12 12 10 10 10 10 7 3 2 2 2 1 1 1 1 2 4 3 2 2 2 3 4
14 13 11 12 14 14 16 16 16 15 14 15 15 16 15 13 13 12 11 11 11 11 11 11 11 11 11 10 6 2 1 2 1 1 3 7 8 8 8 8 6 3 3 4
13 12 12 14 14 14 16 13 14 14 16 18 16 20 17 15 13 13 12 12 12 12 11 11 11 11 11 10 7 3 2 2 2 2 4 4 4 4 6 6 7 7 4 4
14 13 13 13 13 12 14 12 14 15 17 17 19 18 18 16 15 13 12 12 12 12 12 11 11 10 11 10 7 4 3 2 3 3 3 3 3 5 8 8 7 7 8 7
13 11 12 12 12 12 11 13 14 15 17 19 18 17 19 17 15 15 13 12 10 11 10 10 10 10 9 7 5 4 4 5 5 4 6 5 6 8 8 9 7 8 8 8
13 13 12 11 13 12 13 15 19 20 20 20 18 18 17 15 14 14 13 12 11 11 11 10 10 10 9 8 6 5 5 5 5 7 7 6 6 6 7 8 7 8 9 10
15 16 12 11 12 13 14 14 18 22 21 20 17 19 16 13 12 11 11 11 10 11 11 10 10 10 10 9 8 7 7 7 6 7 8 8 8 8 8 8 8 7 7 7
15 15 12 11 11 10 13 15 13 17 23 20 18 16 14 12 12 11 11 11 11 11 11 10 10 10 9 9 8 8 7 7 7 7 8 9 9 9 9 9 10 9 10 11
14 17 14 13 11 12 13 12 16 17 23 24 20 19 17 14 13 11 11 12 11 11 11 10 10 10 9 9 9 8 8 7 7 7 7 8 8 8 9 10 10 11 11 12
12 15 16 14 15 15 15 15 15 15 17 20 22 19 15 14 12 12 12 11 11 11 11 11 11 10 10 10 9 9 9 9 8 8 8 9 9 10 10 11 11 12 13 13
12 14 18 16 14 13 13 14 14 17 19 18 18 17 13 12 12 12 12 12 11 11 11 11 10 10 10 10 10 10 10 10 10 9 9 9 10 11 11 12 12 13 13 14
11 15 20 19 16 15 15 14 13 13 15 18 19 18 13 13 13 13 12 12 11 12 12 11 11 11 11 10 11 11 10 10 10 10 10 10 11 11 11 12 12 13 14 14
9 14 15 17 17 14 15 15 13 13 18 17 17 16 14 13 13 12 12 11 11 12 12 12 11 11 11 11 11 11 10 10 10 10 11 11 11 11 11 12 13 14 14 15
10 15 13 13 13 14 15 16 13 14 14 16 15 15 13 12 12 12 12 11 12 12 11 11 11 12 12 12 11 11 11 11 10 11 11 11 11 11 12 13 13 14 15 15
10 15 13 15 13 13 15 14 14 14 14 14 15 15 11 11 11 13 11 11 11 12 12 11 11 11 11 11 11 11 11 11 12 12 12 12 13 13 13 14 14 15 16 16
13 14 15 17 14 15 17 14 13 13 13 13 15 13 11 12 11 13 13 13 13 12 12 12 12 11 12 12 12 12 13 13 13 13 13 13 13 13 14 14 15 16 17 18
13 13 13 17 15 20 15 14 11 12 12 11 13 13 11 11 12 13 13 13 13 13 13 12 12 12 12 13 13 14 14 14 14 14 14 14 14 14 15 17 17 18 19 18
10 12 15 17 20 18 16 15 14 13 13 10 11 13 13 12 13 14 13 12 12 13 12 12 12 12 12 13 13 14 14 14 14 14 14 14 16 17 18 18 19 20 20 20
11 12 14 18 18 22 17 16 12 12 16 14 10 12 13 12 15 13 12 13 13 13 13 13 13 13 14 14 14 14 14 14 14 14 14 16 17 19 18 17 19 20 20 18
14 14 16 17 21 20 16 13 12 17 16 14 11 12 14 14 12 11 12 13 13 13 12 13 13 13 13 14 14 14 14 14 13 14 16 16 17 17 18 18 19 20 20 18
15 15 16 19 22 21 14 13 14 13 14 13 13 13 13 12 13 13 13 13 12 12 12 12 12 13 13 13 13 13 13 12 12 14 15 16 18 17 17 20 20 20 20 20
16 14 16 16 16 14 14 14 13 13 13 13 12 13 13 13 13 13 12 12 12 12 12 12 12 13 12 13 14 14 12 13 14 17 16 18 18 17 18 20 20 19 20 20
16 14 15 15 15 14 13 13 12 12 12 12 12 12 12 13 13 13 12 12 12 12 12 13 13 13 13 14 14 14 14 14 16 16 16 17 17 17 18 16 16 17 17 17
14 13 16 17 14 14 14 13 12 11 11 11 12 12 12 12 13 12 12 12 12 13 14 15 15 15 16 16 17 18 17 18 17 18 17 18 19 20 19 18 18 16 17 15
14 14 14 15 11 12 12 11 11 12 12 11 12 12 12 12 12 13 13 14 15 16 17 17 18 19 18 18 19 20 23 23 17 17 17 18 18 19 18 18 13 12 10 10